THORAD DELTA 1 DEB, 8311

Orbit data source: Space-Track

THORAD DELTA 1 DEB, 8311 is space debris in SSO originally from a launch on Fri, 15 Nov 1974 UTC launched from the Air Force Western Test Range (AFWTR). Debris objects in space refer to the collection of defunct objects orbiting the Earth. Examples of debris include non-operational satellites, rocket bodies, and fragments generated from explosions, collisions, or faulty payload assembly.

Loading next visibility...
Identifier
8311, 1974-089BU
Orbit
SSO
Country
Flag of USUS
Related business
Manufacturer
Unknown
Mission
Spacecraft
Bus & Motor
Unknown
Mass
Unknown
Launch date (UTC)
1974-11-15 (51 years ago)
Launch vehicle
Unknown
Launch site
Air Force Western Test Range (AFWTR)
Object type
Payload
Rocket body
Debris
Shape & HBR
Unknown shape, 1.5 m
Radar Cross Section
Large (>1 m²)

Expand to show TLE details & history
Last TLE update: 5 hours ago

TLE from 5 hours ago
0 THORAD DELTA 1 DEB
1  8311U 74089BU  25289.16674463 -.00000006  00000-0  27996-3 0  9997
2  8311 102.1247 256.7010 0036756 104.2415 267.2136 12.45539814314857
Epoch: 2025-10-16T04:00Z
TLE epoch observation values (Epoch: 2025-10-16T04:00:06.736Z)
Latitude
10.74164°
Longitude
169.4183°
Altitude
1,486.524 km
Speed
7.121 km/s
True Right ascension
16h 57m 30s
True Declination
10° 41' 05"
Sunlit
Object was in daylight at epoch
Visualization orbit readout
Latitude
Unknown
Longitude
Unknown
Altitude
Unknown
Speed
Unknown
Apparent Right ascension
Unknown
Apparent Declination
Unknown
Sunlit
N/A
Visualization observer readout
Local Sidereal Time
03:36:44
Azimuth
Unknown
Elevation
Unknown
Doppler factor
Unknown
Orbital elements
Apogee altitude
1,509.668 km
Perigee altitude
1,451.895 km
Semi-major axis
7,858.918 km
Eccentricity
0.00368
Inclination
102.1247°
RAAN
256.701°
Arg. of periapsis
104.2415°
True anomaly
266.793°
Mean anomaly
267.2136°
Eccentric anomaly
267.00329°
Mean motion
3.11529 °/min
Orbital period
115.56 mins
BSTAR
0.00027996
Loading maneuver chart data...
Computing Atmospheric mass density...

Documentation

Showing up to 5 results
|